<?xml version="1.0" encoding="utf-8"?>
<gpx xmlns:xsi="http://www.w3.org/2001/XMLSchema-instance" xmlns:xsd="http://www.w3.org/2001/XMLSchema" version="1.1" creator="Shapelink.com" xmlns="http://www.topografix.com/GPX/1/1" xmlns:gpxtpx="http://www.garmin.com/xmlschemas/TrackPointExtension/v1">
  <metadata>
    <name>Kører 6.23 km, 2013-07-19</name>
    <desc></desc>
    <author><name>Mattias Eriksson</name></author> 
    <time>1970-01-01T01:00:00Z</time>
  </metadata>
  <trk>
    <name>Kører 6.23 km, 2013-07-19</name>
    <trkseg>
      <trkpt lat="55.601016" lon="12.979223">
        <ele>5</ele>
        <time>1970-01-01T01:00:00Z</time>
      </trkpt>
      <trkpt lat="55.601116" lon="12.978906">
        <ele>5</ele>
        <time>1970-01-01T01:00:00Z</time>
      </trkpt>
      <trkpt lat="55.601189" lon="12.978836">
        <ele>5</ele>
        <time>1970-01-01T01:00:00Z</time>
      </trkpt>
      <trkpt lat="55.601216" lon="12.978671">
        <ele>5</ele>
        <time>1970-01-01T01:00:00Z</time>
      </trkpt>
      <trkpt lat="55.601299" lon="12.978613">
        <ele>5</ele>
        <time>1970-01-01T01:00:00Z</time>
      </trkpt>
      <trkpt lat="55.601371" lon="12.978488">
        <ele>5</ele>
        <time>1970-01-01T01:00:00Z</time>
      </trkpt>
      <trkpt lat="55.601462" lon="12.978417">
        <ele>5</ele>
        <time>1970-01-01T01:00:00Z</time>
      </trkpt>
      <trkpt lat="55.60156" lon="12.978448">
        <ele>5</ele>
        <time>1970-01-01T01:00:00Z</time>
      </trkpt>
      <trkpt lat="55.601647" lon="12.978464">
        <ele>5</ele>
        <time>1970-01-01T01:00:00Z</time>
      </trkpt>
      <trkpt lat="55.60175" lon="12.97848">
        <ele>5.09091</ele>
        <time>1970-01-01T01:00:00Z</time>
      </trkpt>
      <trkpt lat="55.601841" lon="12.978477">
        <ele>5.18182</ele>
        <time>1970-01-01T01:00:00Z</time>
      </trkpt>
      <trkpt lat="55.601932" lon="12.978431">
        <ele>5.27273</ele>
        <time>1970-01-01T01:00:00Z</time>
      </trkpt>
      <trkpt lat="55.602018" lon="12.978356">
        <ele>5.45455</ele>
        <time>1970-01-01T01:00:00Z</time>
      </trkpt>
      <trkpt lat="55.602092" lon="12.978285">
        <ele>5.63636</ele>
        <time>1970-01-01T01:00:00Z</time>
      </trkpt>
      <trkpt lat="55.602182" lon="12.978228">
        <ele>5.81818</ele>
        <time>1970-01-01T01:00:00Z</time>
      </trkpt>
      <trkpt lat="55.602245" lon="12.978108">
        <ele>6</ele>
        <time>1970-01-01T01:00:00Z</time>
      </trkpt>
      <trkpt lat="55.60232" lon="12.978004">
        <ele>6.18182</ele>
        <time>1970-01-01T01:00:00Z</time>
      </trkpt>
      <trkpt lat="55.602417" lon="12.977963">
        <ele>6.36364</ele>
        <time>1970-01-01T01:00:00Z</time>
      </trkpt>
      <trkpt lat="55.602508" lon="12.977886">
        <ele>6.63636</ele>
        <time>1970-01-01T01:00:00Z</time>
      </trkpt>
      <trkpt lat="55.602607" lon="12.97783">
        <ele>6.36364</ele>
        <time>1970-01-01T01:00:00Z</time>
      </trkpt>
      <trkpt lat="55.602703" lon="12.97777">
        <ele>6</ele>
        <time>1970-01-01T01:00:00Z</time>
      </trkpt>
      <trkpt lat="55.602781" lon="12.977717">
        <ele>5.63636</ele>
        <time>1970-01-01T01:00:00Z</time>
      </trkpt>
      <trkpt lat="55.60286" lon="12.977668">
        <ele>5.27273</ele>
        <time>1970-01-01T01:00:00Z</time>
      </trkpt>
      <trkpt lat="55.602961" lon="12.977601">
        <ele>4.81818</ele>
        <time>1970-01-01T01:00:00Z</time>
      </trkpt>
      <trkpt lat="55.604137" lon="12.976782">
        <ele>4.36364</ele>
        <time>1970-01-01T01:00:00Z</time>
      </trkpt>
      <trkpt lat="55.604167" lon="12.976615">
        <ele>3.90909</ele>
        <time>1970-01-01T01:00:00Z</time>
      </trkpt>
      <trkpt lat="55.604262" lon="12.976594">
        <ele>3.45455</ele>
        <time>1970-01-01T01:00:00Z</time>
      </trkpt>
      <trkpt lat="55.604337" lon="12.976527">
        <ele>3</ele>
        <time>1970-01-01T01:00:00Z</time>
      </trkpt>
      <trkpt lat="55.604345" lon="12.976368">
        <ele>3.09091</ele>
        <time>1970-01-01T01:00:00Z</time>
      </trkpt>
      <trkpt lat="55.604357" lon="12.976194">
        <ele>3.09091</ele>
        <time>1970-01-01T01:00:00Z</time>
      </trkpt>
      <trkpt lat="55.603965" lon="12.975527">
        <ele>3.63636</ele>
        <time>1970-01-01T01:00:00Z</time>
      </trkpt>
      <trkpt lat="55.603851" lon="12.975449">
        <ele>4.18182</ele>
        <time>1970-01-01T01:00:00Z</time>
      </trkpt>
      <trkpt lat="55.603783" lon="12.975353">
        <ele>4.72727</ele>
        <time>1970-01-01T01:00:00Z</time>
      </trkpt>
      <trkpt lat="55.60373" lon="12.975215">
        <ele>5</ele>
        <time>1970-01-01T01:00:00Z</time>
      </trkpt>
      <trkpt lat="55.603644" lon="12.975121">
        <ele>5.27273</ele>
        <time>1970-01-01T01:00:00Z</time>
      </trkpt>
      <trkpt lat="55.60358" lon="12.975016">
        <ele>5.54545</ele>
        <time>1970-01-01T01:00:00Z</time>
      </trkpt>
      <trkpt lat="55.603514" lon="12.974882">
        <ele>5.81818</ele>
        <time>1970-01-01T01:00:00Z</time>
      </trkpt>
      <trkpt lat="55.603477" lon="12.974747">
        <ele>6.09091</ele>
        <time>1970-01-01T01:00:00Z</time>
      </trkpt>
      <trkpt lat="55.603452" lon="12.974575">
        <ele>6.18182</ele>
        <time>1970-01-01T01:00:00Z</time>
      </trkpt>
      <trkpt lat="55.60345" lon="12.974404">
        <ele>5.72727</ele>
        <time>1970-01-01T01:00:00Z</time>
      </trkpt>
      <trkpt lat="55.603471" lon="12.974263">
        <ele>5.27273</ele>
        <time>1970-01-01T01:00:00Z</time>
      </trkpt>
      <trkpt lat="55.603488" lon="12.974088">
        <ele>4.81818</ele>
        <time>1970-01-01T01:00:00Z</time>
      </trkpt>
      <trkpt lat="55.603473" lon="12.973914">
        <ele>4.36364</ele>
        <time>1970-01-01T01:00:00Z</time>
      </trkpt>
      <trkpt lat="55.603486" lon="12.973738">
        <ele>3.90909</ele>
        <time>1970-01-01T01:00:00Z</time>
      </trkpt>
      <trkpt lat="55.603498" lon="12.973549">
        <ele>3.63636</ele>
        <time>1970-01-01T01:00:00Z</time>
      </trkpt>
      <trkpt lat="55.603467" lon="12.973387">
        <ele>3.36364</ele>
        <time>1970-01-01T01:00:00Z</time>
      </trkpt>
      <trkpt lat="55.603448" lon="12.973246">
        <ele>3.09091</ele>
        <time>1970-01-01T01:00:00Z</time>
      </trkpt>
      <trkpt lat="55.603417" lon="12.973107">
        <ele>2.81818</ele>
        <time>1970-01-01T01:00:00Z</time>
      </trkpt>
      <trkpt lat="55.603374" lon="12.972969">
        <ele>2.54545</ele>
        <time>1970-01-01T01:00:00Z</time>
      </trkpt>
      <trkpt lat="55.603333" lon="12.972837">
        <ele>2.45455</ele>
        <time>1970-01-01T01:00:00Z</time>
      </trkpt>
      <trkpt lat="55.603288" lon="12.972714">
        <ele>2.72727</ele>
        <time>1970-01-01T01:00:00Z</time>
      </trkpt>
      <trkpt lat="55.603222" lon="12.972545">
        <ele>2.81818</ele>
        <time>1970-01-01T01:00:00Z</time>
      </trkpt>
      <trkpt lat="55.603154" lon="12.972453">
        <ele>2.90909</ele>
        <time>1970-01-01T01:00:00Z</time>
      </trkpt>
      <trkpt lat="55.603082" lon="12.972313">
        <ele>3</ele>
        <time>1970-01-01T01:00:00Z</time>
      </trkpt>
      <trkpt lat="55.602994" lon="12.972197">
        <ele>3.09091</ele>
        <time>1970-01-01T01:00:00Z</time>
      </trkpt>
      <trkpt lat="55.602887" lon="12.972117">
        <ele>3.27273</ele>
        <time>1970-01-01T01:00:00Z</time>
      </trkpt>
      <trkpt lat="55.602785" lon="12.972048">
        <ele>3.45455</ele>
        <time>1970-01-01T01:00:00Z</time>
      </trkpt>
      <trkpt lat="55.602702" lon="12.971942">
        <ele>3.63636</ele>
        <time>1970-01-01T01:00:00Z</time>
      </trkpt>
      <trkpt lat="55.602625" lon="12.971848">
        <ele>3.72727</ele>
        <time>1970-01-01T01:00:00Z</time>
      </trkpt>
      <trkpt lat="55.602584" lon="12.97172">
        <ele>3.81818</ele>
        <time>1970-01-01T01:00:00Z</time>
      </trkpt>
      <trkpt lat="55.602522" lon="12.971606">
        <ele>3.90909</ele>
        <time>1970-01-01T01:00:00Z</time>
      </trkpt>
      <trkpt lat="55.602469" lon="12.971472">
        <ele>3.63636</ele>
        <time>1970-01-01T01:00:00Z</time>
      </trkpt>
      <trkpt lat="55.602431" lon="12.971326">
        <ele>3.54545</ele>
        <time>1970-01-01T01:00:00Z</time>
      </trkpt>
      <trkpt lat="55.602452" lon="12.971151">
        <ele>3.45455</ele>
        <time>1970-01-01T01:00:00Z</time>
      </trkpt>
      <trkpt lat="55.602427" lon="12.970988">
        <ele>3.36364</ele>
        <time>1970-01-01T01:00:00Z</time>
      </trkpt>
      <trkpt lat="55.60239" lon="12.970855">
        <ele>3.27273</ele>
        <time>1970-01-01T01:00:00Z</time>
      </trkpt>
      <trkpt lat="55.602349" lon="12.970723">
        <ele>3.18182</ele>
        <time>1970-01-01T01:00:00Z</time>
      </trkpt>
      <trkpt lat="55.602294" lon="12.970603">
        <ele>3.09091</ele>
        <time>1970-01-01T01:00:00Z</time>
      </trkpt>
      <trkpt lat="55.602232" lon="12.97049">
        <ele>3</ele>
        <time>1970-01-01T01:00:00Z</time>
      </trkpt>
      <trkpt lat="55.602161" lon="12.970394">
        <ele>3.18182</ele>
        <time>1970-01-01T01:00:00Z</time>
      </trkpt>
      <trkpt lat="55.602135" lon="12.970246">
        <ele>3.36364</ele>
        <time>1970-01-01T01:00:00Z</time>
      </trkpt>
      <trkpt lat="55.60212" lon="12.970077">
        <ele>3.54545</ele>
        <time>1970-01-01T01:00:00Z</time>
      </trkpt>
      <trkpt lat="55.602122" lon="12.969898">
        <ele>3.72727</ele>
        <time>1970-01-01T01:00:00Z</time>
      </trkpt>
      <trkpt lat="55.602109" lon="12.969755">
        <ele>3.90909</ele>
        <time>1970-01-01T01:00:00Z</time>
      </trkpt>
      <trkpt lat="55.60206" lon="12.969598">
        <ele>4.09091</ele>
        <time>1970-01-01T01:00:00Z</time>
      </trkpt>
      <trkpt lat="55.602041" lon="12.969449">
        <ele>4.27273</ele>
        <time>1970-01-01T01:00:00Z</time>
      </trkpt>
      <trkpt lat="55.601994" lon="12.969333">
        <ele>4.45455</ele>
        <time>1970-01-01T01:00:00Z</time>
      </trkpt>
      <trkpt lat="55.60194" lon="12.969214">
        <ele>4.36364</ele>
        <time>1970-01-01T01:00:00Z</time>
      </trkpt>
      <trkpt lat="55.601912" lon="12.969055">
        <ele>4.27273</ele>
        <time>1970-01-01T01:00:00Z</time>
      </trkpt>
      <trkpt lat="55.601872" lon="12.968924">
        <ele>4.18182</ele>
        <time>1970-01-01T01:00:00Z</time>
      </trkpt>
      <trkpt lat="55.601783" lon="12.968879">
        <ele>3.90909</ele>
        <time>1970-01-01T01:00:00Z</time>
      </trkpt>
      <trkpt lat="55.601696" lon="12.968838">
        <ele>3.63636</ele>
        <time>1970-01-01T01:00:00Z</time>
      </trkpt>
      <trkpt lat="55.601619" lon="12.968791">
        <ele>3.36364</ele>
        <time>1970-01-01T01:00:00Z</time>
      </trkpt>
      <trkpt lat="55.60156" lon="12.968657">
        <ele>3.54545</ele>
        <time>1970-01-01T01:00:00Z</time>
      </trkpt>
      <trkpt lat="55.601507" lon="12.968532">
        <ele>3.54545</ele>
        <time>1970-01-01T01:00:00Z</time>
      </trkpt>
      <trkpt lat="55.601435" lon="12.968455">
        <ele>3.54545</ele>
        <time>1970-01-01T01:00:00Z</time>
      </trkpt>
      <trkpt lat="55.601372" lon="12.968329">
        <ele>3.54545</ele>
        <time>1970-01-01T01:00:00Z</time>
      </trkpt>
      <trkpt lat="55.601322" lon="12.96819">
        <ele>3.54545</ele>
        <time>1970-01-01T01:00:00Z</time>
      </trkpt>
      <trkpt lat="55.60127" lon="12.968051">
        <ele>3.81818</ele>
        <time>1970-01-01T01:00:00Z</time>
      </trkpt>
      <trkpt lat="55.601245" lon="12.967864">
        <ele>3.90909</ele>
        <time>1970-01-01T01:00:00Z</time>
      </trkpt>
      <trkpt lat="55.60124" lon="12.967697">
        <ele>4</ele>
        <time>1970-01-01T01:00:00Z</time>
      </trkpt>
      <trkpt lat="55.601196" lon="12.967547">
        <ele>4.09091</ele>
        <time>1970-01-01T01:00:00Z</time>
      </trkpt>
      <trkpt lat="55.60113" lon="12.967418">
        <ele>4.18182</ele>
        <time>1970-01-01T01:00:00Z</time>
      </trkpt>
      <trkpt lat="55.601092" lon="12.967271">
        <ele>4.27273</ele>
        <time>1970-01-01T01:00:00Z</time>
      </trkpt>
      <trkpt lat="55.601038" lon="12.967119">
        <ele>3.90909</ele>
        <time>1970-01-01T01:00:00Z</time>
      </trkpt>
      <trkpt lat="55.600983" lon="12.966999">
        <ele>3.63636</ele>
        <time>1970-01-01T01:00:00Z</time>
      </trkpt>
      <trkpt lat="55.600951" lon="12.966841">
        <ele>3.36364</ele>
        <time>1970-01-01T01:00:00Z</time>
      </trkpt>
      <trkpt lat="55.600917" lon="12.966678">
        <ele>3.09091</ele>
        <time>1970-01-01T01:00:00Z</time>
      </trkpt>
      <trkpt lat="55.600871" lon="12.966556">
        <ele>2.81818</ele>
        <time>1970-01-01T01:00:00Z</time>
      </trkpt>
      <trkpt lat="55.600847" lon="12.966415">
        <ele>2.54545</ele>
        <time>1970-01-01T01:00:00Z</time>
      </trkpt>
      <trkpt lat="55.600804" lon="12.966263">
        <ele>2.45455</ele>
        <time>1970-01-01T01:00:00Z</time>
      </trkpt>
      <trkpt lat="55.600774" lon="12.966121">
        <ele>2.36364</ele>
        <time>1970-01-01T01:00:00Z</time>
      </trkpt>
      <trkpt lat="55.600746" lon="12.965969">
        <ele>2.27273</ele>
        <time>1970-01-01T01:00:00Z</time>
      </trkpt>
      <trkpt lat="55.600711" lon="12.965816">
        <ele>2.18182</ele>
        <time>1970-01-01T01:00:00Z</time>
      </trkpt>
      <trkpt lat="55.60066" lon="12.965655">
        <ele>2.09091</ele>
        <time>1970-01-01T01:00:00Z</time>
      </trkpt>
      <trkpt lat="55.600625" lon="12.965512">
        <ele>2.36364</ele>
        <time>1970-01-01T01:00:00Z</time>
      </trkpt>
      <trkpt lat="55.600601" lon="12.965345">
        <ele>2.54545</ele>
        <time>1970-01-01T01:00:00Z</time>
      </trkpt>
      <trkpt lat="55.600549" lon="12.965201">
        <ele>2.72727</ele>
        <time>1970-01-01T01:00:00Z</time>
      </trkpt>
      <trkpt lat="55.6005" lon="12.965048">
        <ele>2.90909</ele>
        <time>1970-01-01T01:00:00Z</time>
      </trkpt>
      <trkpt lat="55.600463" lon="12.964891">
        <ele>3.09091</ele>
        <time>1970-01-01T01:00:00Z</time>
      </trkpt>
      <trkpt lat="55.600419" lon="12.964737">
        <ele>3.27273</ele>
        <time>1970-01-01T01:00:00Z</time>
      </trkpt>
      <trkpt lat="55.600397" lon="12.96457">
        <ele>3.45455</ele>
        <time>1970-01-01T01:00:00Z</time>
      </trkpt>
      <trkpt lat="55.600362" lon="12.964417">
        <ele>3.54545</ele>
        <time>1970-01-01T01:00:00Z</time>
      </trkpt>
      <trkpt lat="55.600329" lon="12.964261">
        <ele>3.63636</ele>
        <time>1970-01-01T01:00:00Z</time>
      </trkpt>
      <trkpt lat="55.600287" lon="12.964113">
        <ele>3.72727</ele>
        <time>1970-01-01T01:00:00Z</time>
      </trkpt>
      <trkpt lat="55.600231" lon="12.963975">
        <ele>3.81818</ele>
        <time>1970-01-01T01:00:00Z</time>
      </trkpt>
      <trkpt lat="55.600165" lon="12.963839">
        <ele>3.54545</ele>
        <time>1970-01-01T01:00:00Z</time>
      </trkpt>
      <trkpt lat="55.600106" lon="12.963696">
        <ele>3.45455</ele>
        <time>1970-01-01T01:00:00Z</time>
      </trkpt>
      <trkpt lat="55.600064" lon="12.963556">
        <ele>3.27273</ele>
        <time>1970-01-01T01:00:00Z</time>
      </trkpt>
      <trkpt lat="55.600033" lon="12.963404">
        <ele>3.09091</ele>
        <time>1970-01-01T01:00:00Z</time>
      </trkpt>
      <trkpt lat="55.599988" lon="12.963253">
        <ele>2.90909</ele>
        <time>1970-01-01T01:00:00Z</time>
      </trkpt>
      <trkpt lat="55.599942" lon="12.963103">
        <ele>2.72727</ele>
        <time>1970-01-01T01:00:00Z</time>
      </trkpt>
      <trkpt lat="55.599904" lon="12.962952">
        <ele>2.54545</ele>
        <time>1970-01-01T01:00:00Z</time>
      </trkpt>
      <trkpt lat="55.599842" lon="12.962807">
        <ele>2.81818</ele>
        <time>1970-01-01T01:00:00Z</time>
      </trkpt>
      <trkpt lat="55.599793" lon="12.962667">
        <ele>3</ele>
        <time>1970-01-01T01:00:00Z</time>
      </trkpt>
      <trkpt lat="55.599751" lon="12.96254">
        <ele>3.18182</ele>
        <time>1970-01-01T01:00:00Z</time>
      </trkpt>
      <trkpt lat="55.599712" lon="12.962407">
        <ele>3.36364</ele>
        <time>1970-01-01T01:00:00Z</time>
      </trkpt>
      <trkpt lat="55.599666" lon="12.962276">
        <ele>3.54545</ele>
        <time>1970-01-01T01:00:00Z</time>
      </trkpt>
      <trkpt lat="55.599617" lon="12.962156">
        <ele>3.72727</ele>
        <time>1970-01-01T01:00:00Z</time>
      </trkpt>
      <trkpt lat="55.599561" lon="12.961991">
        <ele>4</ele>
        <time>1970-01-01T01:00:00Z</time>
      </trkpt>
      <trkpt lat="55.599499" lon="12.96188">
        <ele>4</ele>
        <time>1970-01-01T01:00:00Z</time>
      </trkpt>
      <trkpt lat="55.599441" lon="12.961775">
        <ele>4</ele>
        <time>1970-01-01T01:00:00Z</time>
      </trkpt>
      <trkpt lat="55.599387" lon="12.961647">
        <ele>4</ele>
        <time>1970-01-01T01:00:00Z</time>
      </trkpt>
      <trkpt lat="55.599339" lon="12.961485">
        <ele>4</ele>
        <time>1970-01-01T01:00:00Z</time>
      </trkpt>
      <trkpt lat="55.599269" lon="12.961355">
        <ele>3.63636</ele>
        <time>1970-01-01T01:00:00Z</time>
      </trkpt>
      <trkpt lat="55.59922" lon="12.961232">
        <ele>3.36364</ele>
        <time>1970-01-01T01:00:00Z</time>
      </trkpt>
      <trkpt lat="55.599174" lon="12.961069">
        <ele>2.90909</ele>
        <time>1970-01-01T01:00:00Z</time>
      </trkpt>
      <trkpt lat="55.599121" lon="12.960932">
        <ele>2.45455</ele>
        <time>1970-01-01T01:00:00Z</time>
      </trkpt>
      <trkpt lat="55.599063" lon="12.960829">
        <ele>2</ele>
        <time>1970-01-01T01:00:00Z</time>
      </trkpt>
      <trkpt lat="55.599006" lon="12.960708">
        <ele>1.54545</ele>
        <time>1970-01-01T01:00:00Z</time>
      </trkpt>
      <trkpt lat="55.598958" lon="12.960587">
        <ele>1.09091</ele>
        <time>1970-01-01T01:00:00Z</time>
      </trkpt>
      <trkpt lat="55.598964" lon="12.960406">
        <ele>1.54545</ele>
        <time>1970-01-01T01:00:00Z</time>
      </trkpt>
      <trkpt lat="55.598924" lon="12.960252">
        <ele>1.63636</ele>
        <time>1970-01-01T01:00:00Z</time>
      </trkpt>
      <trkpt lat="55.598879" lon="12.96013">
        <ele>1.72727</ele>
        <time>1970-01-01T01:00:00Z</time>
      </trkpt>
      <trkpt lat="55.598831" lon="12.960007">
        <ele>1.81818</ele>
        <time>1970-01-01T01:00:00Z</time>
      </trkpt>
      <trkpt lat="55.598774" lon="12.959875">
        <ele>1.90909</ele>
        <time>1970-01-01T01:00:00Z</time>
      </trkpt>
      <trkpt lat="55.59873" lon="12.959746">
        <ele>2</ele>
        <time>1970-01-01T01:00:00Z</time>
      </trkpt>
      <trkpt lat="55.598695" lon="12.95959">
        <ele>2.27273</ele>
        <time>1970-01-01T01:00:00Z</time>
      </trkpt>
      <trkpt lat="55.598639" lon="12.959439">
        <ele>2.27273</ele>
        <time>1970-01-01T01:00:00Z</time>
      </trkpt>
      <trkpt lat="55.598576" lon="12.95931">
        <ele>2.27273</ele>
        <time>1970-01-01T01:00:00Z</time>
      </trkpt>
      <trkpt lat="55.598506" lon="12.959201">
        <ele>2.27273</ele>
        <time>1970-01-01T01:00:00Z</time>
      </trkpt>
      <trkpt lat="55.598461" lon="12.959053">
        <ele>2.27273</ele>
        <time>1970-01-01T01:00:00Z</time>
      </trkpt>
      <trkpt lat="55.598425" lon="12.9589">
        <ele>1.63636</ele>
        <time>1970-01-01T01:00:00Z</time>
      </trkpt>
      <trkpt lat="55.598382" lon="12.958756">
        <ele>1.36364</ele>
        <time>1970-01-01T01:00:00Z</time>
      </trkpt>
      <trkpt lat="55.598362" lon="12.958602">
        <ele>1</ele>
        <time>1970-01-01T01:00:00Z</time>
      </trkpt>
      <trkpt lat="55.598281" lon="12.95848">
        <ele>0.636364</ele>
        <time>1970-01-01T01:00:00Z</time>
      </trkpt>
      <trkpt lat="55.598208" lon="12.958375">
        <ele>0.272727</ele>
        <time>1970-01-01T01:00:00Z</time>
      </trkpt>
      <trkpt lat="55.598131" lon="12.958302">
        <ele>0.363636</ele>
        <time>1970-01-01T01:00:00Z</time>
      </trkpt>
      <trkpt lat="55.598113" lon="12.958147">
        <ele>0.454545</ele>
        <time>1970-01-01T01:00:00Z</time>
      </trkpt>
      <trkpt lat="55.598081" lon="12.957999">
        <ele>0.818182</ele>
        <time>1970-01-01T01:00:00Z</time>
      </trkpt>
      <trkpt lat="55.598015" lon="12.957849">
        <ele>1.18182</ele>
        <time>1970-01-01T01:00:00Z</time>
      </trkpt>
      <trkpt lat="55.597945" lon="12.957727">
        <ele>1.36364</ele>
        <time>1970-01-01T01:00:00Z</time>
      </trkpt>
      <trkpt lat="55.597884" lon="12.957584">
        <ele>1.54545</ele>
        <time>1970-01-01T01:00:00Z</time>
      </trkpt>
      <trkpt lat="55.597836" lon="12.957467">
        <ele>1.72727</ele>
        <time>1970-01-01T01:00:00Z</time>
      </trkpt>
      <trkpt lat="55.597768" lon="12.957326">
        <ele>1.90909</ele>
        <time>1970-01-01T01:00:00Z</time>
      </trkpt>
      <trkpt lat="55.597708" lon="12.957204">
        <ele>2.18182</ele>
        <time>1970-01-01T01:00:00Z</time>
      </trkpt>
      <trkpt lat="55.597647" lon="12.957078">
        <ele>2.45455</ele>
        <time>1970-01-01T01:00:00Z</time>
      </trkpt>
      <trkpt lat="55.597596" lon="12.956944">
        <ele>2.45455</ele>
        <time>1970-01-01T01:00:00Z</time>
      </trkpt>
      <trkpt lat="55.597542" lon="12.956789">
        <ele>2</ele>
        <time>1970-01-01T01:00:00Z</time>
      </trkpt>
      <trkpt lat="55.597481" lon="12.956654">
        <ele>1.54545</ele>
        <time>1970-01-01T01:00:00Z</time>
      </trkpt>
      <trkpt lat="55.597431" lon="12.956525">
        <ele>1.09091</ele>
        <time>1970-01-01T01:00:00Z</time>
      </trkpt>
      <trkpt lat="55.597372" lon="12.956387">
        <ele>0.636364</ele>
        <time>1970-01-01T01:00:00Z</time>
      </trkpt>
      <trkpt lat="55.597321" lon="12.956251">
        <ele>0.818182</ele>
        <time>1970-01-01T01:00:00Z</time>
      </trkpt>
      <trkpt lat="55.597274" lon="12.956111">
        <ele>0.636364</ele>
        <time>1970-01-01T01:00:00Z</time>
      </trkpt>
      <trkpt lat="55.597226" lon="12.955971">
        <ele>0.454545</ele>
        <time>1970-01-01T01:00:00Z</time>
      </trkpt>
      <trkpt lat="55.597172" lon="12.955838">
        <ele>0.272727</ele>
        <time>1970-01-01T01:00:00Z</time>
      </trkpt>
      <trkpt lat="55.59711" lon="12.955722">
        <ele>0.0909091</ele>
        <time>1970-01-01T01:00:00Z</time>
      </trkpt>
      <trkpt lat="55.597041" lon="12.95561">
        <ele>0</ele>
        <time>1970-01-01T01:00:00Z</time>
      </trkpt>
      <trkpt lat="55.596963" lon="12.955498">
        <ele>0</ele>
        <time>1970-01-01T01:00:00Z</time>
      </trkpt>
      <trkpt lat="55.596895" lon="12.955414">
        <ele>0.0909091</ele>
        <time>1970-01-01T01:00:00Z</time>
      </trkpt>
      <trkpt lat="55.596821" lon="12.955323">
        <ele>0.181818</ele>
        <time>1970-01-01T01:00:00Z</time>
      </trkpt>
      <trkpt lat="55.596737" lon="12.955229">
        <ele>0.272727</ele>
        <time>1970-01-01T01:00:00Z</time>
      </trkpt>
      <trkpt lat="55.596662" lon="12.955133">
        <ele>0.272727</ele>
        <time>1970-01-01T01:00:00Z</time>
      </trkpt>
      <trkpt lat="55.596588" lon="12.955039">
        <ele>0.363636</ele>
        <time>1970-01-01T01:00:00Z</time>
      </trkpt>
      <trkpt lat="55.596521" lon="12.954934">
        <ele>0.818182</ele>
        <time>1970-01-01T01:00:00Z</time>
      </trkpt>
      <trkpt lat="55.596454" lon="12.954819">
        <ele>1.27273</ele>
        <time>1970-01-01T01:00:00Z</time>
      </trkpt>
      <trkpt lat="55.596385" lon="12.95473">
        <ele>1.72727</ele>
        <time>1970-01-01T01:00:00Z</time>
      </trkpt>
      <trkpt lat="55.596314" lon="12.95464">
        <ele>2.18182</ele>
        <time>1970-01-01T01:00:00Z</time>
      </trkpt>
      <trkpt lat="55.596257" lon="12.95452">
        <ele>2.63636</ele>
        <time>1970-01-01T01:00:00Z</time>
      </trkpt>
      <trkpt lat="55.59622" lon="12.95438">
        <ele>3.09091</ele>
        <time>1970-01-01T01:00:00Z</time>
      </trkpt>
      <trkpt lat="55.596169" lon="12.954239">
        <ele>3.36364</ele>
        <time>1970-01-01T01:00:00Z</time>
      </trkpt>
      <trkpt lat="55.596104" lon="12.954112">
        <ele>3.63636</ele>
        <time>1970-01-01T01:00:00Z</time>
      </trkpt>
      <trkpt lat="55.596051" lon="12.953989">
        <ele>3.90909</ele>
        <time>1970-01-01T01:00:00Z</time>
      </trkpt>
      <trkpt lat="55.59598" lon="12.953873">
        <ele>4.27273</ele>
        <time>1970-01-01T01:00:00Z</time>
      </trkpt>
      <trkpt lat="55.595909" lon="12.953768">
        <ele>4.09091</ele>
        <time>1970-01-01T01:00:00Z</time>
      </trkpt>
      <trkpt lat="55.595858" lon="12.953639">
        <ele>3.90909</ele>
        <time>1970-01-01T01:00:00Z</time>
      </trkpt>
      <trkpt lat="55.595793" lon="12.953514">
        <ele>3.54545</ele>
        <time>1970-01-01T01:00:00Z</time>
      </trkpt>
      <trkpt lat="55.595734" lon="12.953378">
        <ele>3.18182</ele>
        <time>1970-01-01T01:00:00Z</time>
      </trkpt>
      <trkpt lat="55.595696" lon="12.953248">
        <ele>2.81818</ele>
        <time>1970-01-01T01:00:00Z</time>
      </trkpt>
      <trkpt lat="55.595615" lon="12.953144">
        <ele>2.90909</ele>
        <time>1970-01-01T01:00:00Z</time>
      </trkpt>
      <trkpt lat="55.595585" lon="12.952988">
        <ele>3</ele>
        <time>1970-01-01T01:00:00Z</time>
      </trkpt>
      <trkpt lat="55.595532" lon="12.952852">
        <ele>3.27273</ele>
        <time>1970-01-01T01:00:00Z</time>
      </trkpt>
      <trkpt lat="55.595542" lon="12.952704">
        <ele>3.36364</ele>
        <time>1970-01-01T01:00:00Z</time>
      </trkpt>
      <trkpt lat="55.595505" lon="12.952538">
        <ele>3.45455</ele>
        <time>1970-01-01T01:00:00Z</time>
      </trkpt>
      <trkpt lat="55.595454" lon="12.952391">
        <ele>3.54545</ele>
        <time>1970-01-01T01:00:00Z</time>
      </trkpt>
      <trkpt lat="55.595399" lon="12.952277">
        <ele>3.63636</ele>
        <time>1970-01-01T01:00:00Z</time>
      </trkpt>
      <trkpt lat="55.595341" lon="12.952139">
        <ele>3.72727</ele>
        <time>1970-01-01T01:00:00Z</time>
      </trkpt>
      <trkpt lat="55.595278" lon="12.952002">
        <ele>4</ele>
        <time>1970-01-01T01:00:00Z</time>
      </trkpt>
      <trkpt lat="55.5952" lon="12.951906">
        <ele>4.27273</ele>
        <time>1970-01-01T01:00:00Z</time>
      </trkpt>
      <trkpt lat="55.595136" lon="12.951816">
        <ele>4.27273</ele>
        <time>1970-01-01T01:00:00Z</time>
      </trkpt>
      <trkpt lat="55.595064" lon="12.951719">
        <ele>3.81818</ele>
        <time>1970-01-01T01:00:00Z</time>
      </trkpt>
      <trkpt lat="55.595002" lon="12.951621">
        <ele>3.36364</ele>
        <time>1970-01-01T01:00:00Z</time>
      </trkpt>
      <trkpt lat="55.594936" lon="12.951489">
        <ele>3.18182</ele>
        <time>1970-01-01T01:00:00Z</time>
      </trkpt>
      <trkpt lat="55.594874" lon="12.95137">
        <ele>3.18182</ele>
        <time>1970-01-01T01:00:00Z</time>
      </trkpt>
      <trkpt lat="55.594792" lon="12.95128">
        <ele>3.18182</ele>
        <time>1970-01-01T01:00:00Z</time>
      </trkpt>
      <trkpt lat="55.594704" lon="12.951213">
        <ele>3.18182</ele>
        <time>1970-01-01T01:00:00Z</time>
      </trkpt>
      <trkpt lat="55.594645" lon="12.951094">
        <ele>2.90909</ele>
        <time>1970-01-01T01:00:00Z</time>
      </trkpt>
      <trkpt lat="55.594597" lon="12.950968">
        <ele>2.63636</ele>
        <time>1970-01-01T01:00:00Z</time>
      </trkpt>
      <trkpt lat="55.594556" lon="12.950812">
        <ele>2.36364</ele>
        <time>1970-01-01T01:00:00Z</time>
      </trkpt>
      <trkpt lat="55.594516" lon="12.950685">
        <ele>2.09091</ele>
        <time>1970-01-01T01:00:00Z</time>
      </trkpt>
      <trkpt lat="55.594493" lon="12.950537">
        <ele>2.09091</ele>
        <time>1970-01-01T01:00:00Z</time>
      </trkpt>
      <trkpt lat="55.594424" lon="12.950379">
        <ele>2.09091</ele>
        <time>1970-01-01T01:00:00Z</time>
      </trkpt>
      <trkpt lat="55.594363" lon="12.95026">
        <ele>2.09091</ele>
        <time>1970-01-01T01:00:00Z</time>
      </trkpt>
      <trkpt lat="55.594287" lon="12.950164">
        <ele>1.72727</ele>
        <time>1970-01-01T01:00:00Z</time>
      </trkpt>
      <trkpt lat="55.594196" lon="12.950089">
        <ele>1.36364</ele>
        <time>1970-01-01T01:00:00Z</time>
      </trkpt>
      <trkpt lat="55.594136" lon="12.949957">
        <ele>1</ele>
        <time>1970-01-01T01:00:00Z</time>
      </trkpt>
      <trkpt lat="55.594081" lon="12.949837">
        <ele>0.636364</ele>
        <time>1970-01-01T01:00:00Z</time>
      </trkpt>
      <trkpt lat="55.594027" lon="12.949718">
        <ele>0.545455</ele>
        <time>1970-01-01T01:00:00Z</time>
      </trkpt>
      <trkpt lat="55.593975" lon="12.949574">
        <ele>0.909091</ele>
        <time>1970-01-01T01:00:00Z</time>
      </trkpt>
      <trkpt lat="55.593937" lon="12.949444">
        <ele>1.27273</ele>
        <time>1970-01-01T01:00:00Z</time>
      </trkpt>
      <trkpt lat="55.593879" lon="12.949297">
        <ele>1.63636</ele>
        <time>1970-01-01T01:00:00Z</time>
      </trkpt>
      <trkpt lat="55.593827" lon="12.949181">
        <ele>2</ele>
        <time>1970-01-01T01:00:00Z</time>
      </trkpt>
      <trkpt lat="55.593762" lon="12.949054">
        <ele>2.36364</ele>
        <time>1970-01-01T01:00:00Z</time>
      </trkpt>
      <trkpt lat="55.593708" lon="12.948914">
        <ele>2.72727</ele>
        <time>1970-01-01T01:00:00Z</time>
      </trkpt>
      <trkpt lat="55.59367" lon="12.94877">
        <ele>3.18182</ele>
        <time>1970-01-01T01:00:00Z</time>
      </trkpt>
      <trkpt lat="55.593641" lon="12.948625">
        <ele>3.63636</ele>
        <time>1970-01-01T01:00:00Z</time>
      </trkpt>
      <trkpt lat="55.59361" lon="12.948454">
        <ele>4.09091</ele>
        <time>1970-01-01T01:00:00Z</time>
      </trkpt>
      <trkpt lat="55.593598" lon="12.948275">
        <ele>4.09091</ele>
        <time>1970-01-01T01:00:00Z</time>
      </trkpt>
      <trkpt lat="55.593618" lon="12.948119">
        <ele>4.09091</ele>
        <time>1970-01-01T01:00:00Z</time>
      </trkpt>
      <trkpt lat="55.593643" lon="12.947982">
        <ele>3.63636</ele>
        <time>1970-01-01T01:00:00Z</time>
      </trkpt>
      <trkpt lat="55.593673" lon="12.947848">
        <ele>3.18182</ele>
        <time>1970-01-01T01:00:00Z</time>
      </trkpt>
      <trkpt lat="55.593741" lon="12.947746">
        <ele>2.72727</ele>
        <time>1970-01-01T01:00:00Z</time>
      </trkpt>
      <trkpt lat="55.593783" lon="12.947597">
        <ele>2.27273</ele>
        <time>1970-01-01T01:00:00Z</time>
      </trkpt>
      <trkpt lat="55.593822" lon="12.947462">
        <ele>1.81818</ele>
        <time>1970-01-01T01:00:00Z</time>
      </trkpt>
      <trkpt lat="55.593897" lon="12.947375">
        <ele>1.36364</ele>
        <time>1970-01-01T01:00:00Z</time>
      </trkpt>
      <trkpt lat="55.593966" lon="12.947296">
        <ele>0.909091</ele>
        <time>1970-01-01T01:00:00Z</time>
      </trkpt>
      <trkpt lat="55.594055" lon="12.947242">
        <ele>0.454545</ele>
        <time>1970-01-01T01:00:00Z</time>
      </trkpt>
      <trkpt lat="55.594116" lon="12.947134">
        <ele>0</ele>
        <time>1970-01-01T01:00:00Z</time>
      </trkpt>
      <trkpt lat="55.594178" lon="12.947028">
        <ele>0</ele>
        <time>1970-01-01T01:00:00Z</time>
      </trkpt>
      <trkpt lat="55.594213" lon="12.946865">
        <ele>0</ele>
        <time>1970-01-01T01:00:00Z</time>
      </trkpt>
      <trkpt lat="55.594245" lon="12.946719">
        <ele>0</ele>
        <time>1970-01-01T01:00:00Z</time>
      </trkpt>
      <trkpt lat="55.594325" lon="12.946614">
        <ele>0</ele>
        <time>1970-01-01T01:00:00Z</time>
      </trkpt>
      <trkpt lat="55.594397" lon="12.946493">
        <ele>0</ele>
        <time>1970-01-01T01:00:00Z</time>
      </trkpt>
      <trkpt lat="55.594461" lon="12.946374">
        <ele>0.0909091</ele>
        <time>1970-01-01T01:00:00Z</time>
      </trkpt>
      <trkpt lat="55.594502" lon="12.946246">
        <ele>0.181818</ele>
        <time>1970-01-01T01:00:00Z</time>
      </trkpt>
      <trkpt lat="55.59456" lon="12.946107">
        <ele>0.272727</ele>
        <time>1970-01-01T01:00:00Z</time>
      </trkpt>
      <trkpt lat="55.594602" lon="12.945975">
        <ele>0.363636</ele>
        <time>1970-01-01T01:00:00Z</time>
      </trkpt>
      <trkpt lat="55.594637" lon="12.945832">
        <ele>0.454545</ele>
        <time>1970-01-01T01:00:00Z</time>
      </trkpt>
      <trkpt lat="55.594715" lon="12.945751">
        <ele>0.545455</ele>
        <time>1970-01-01T01:00:00Z</time>
      </trkpt>
      <trkpt lat="55.594804" lon="12.945676">
        <ele>0.636364</ele>
        <time>1970-01-01T01:00:00Z</time>
      </trkpt>
      <trkpt lat="55.594867" lon="12.945571">
        <ele>0.727273</ele>
        <time>1970-01-01T01:00:00Z</time>
      </trkpt>
      <trkpt lat="55.594948" lon="12.945545">
        <ele>0.818182</ele>
        <time>1970-01-01T01:00:00Z</time>
      </trkpt>
      <trkpt lat="55.595026" lon="12.945593">
        <ele>0.909091</ele>
        <time>1970-01-01T01:00:00Z</time>
      </trkpt>
      <trkpt lat="55.595092" lon="12.945717">
        <ele>1</ele>
        <time>1970-01-01T01:00:00Z</time>
      </trkpt>
      <trkpt lat="55.595156" lon="12.945852">
        <ele>0.909091</ele>
        <time>1970-01-01T01:00:00Z</time>
      </trkpt>
      <trkpt lat="55.5952" lon="12.945987">
        <ele>0.727273</ele>
        <time>1970-01-01T01:00:00Z</time>
      </trkpt>
      <trkpt lat="55.595264" lon="12.946113">
        <ele>0.545455</ele>
        <time>1970-01-01T01:00:00Z</time>
      </trkpt>
      <trkpt lat="55.595327" lon="12.946223">
        <ele>0.363636</ele>
        <time>1970-01-01T01:00:00Z</time>
      </trkpt>
      <trkpt lat="55.595388" lon="12.946339">
        <ele>0.181818</ele>
        <time>1970-01-01T01:00:00Z</time>
      </trkpt>
      <trkpt lat="55.59546" lon="12.946471">
        <ele>0</ele>
        <time>1970-01-01T01:00:00Z</time>
      </trkpt>
      <trkpt lat="55.595513" lon="12.946588">
        <ele>0</ele>
        <time>1970-01-01T01:00:00Z</time>
      </trkpt>
      <trkpt lat="55.595561" lon="12.946714">
        <ele>0</ele>
        <time>1970-01-01T01:00:00Z</time>
      </trkpt>
      <trkpt lat="55.595607" lon="12.946835">
        <ele>0</ele>
        <time>1970-01-01T01:00:00Z</time>
      </trkpt>
      <trkpt lat="55.595651" lon="12.946957">
        <ele>0</ele>
        <time>1970-01-01T01:00:00Z</time>
      </trkpt>
      <trkpt lat="55.595712" lon="12.947065">
        <ele>0</ele>
        <time>1970-01-01T01:00:00Z</time>
      </trkpt>
      <trkpt lat="55.595765" lon="12.947184">
        <ele>0</ele>
        <time>1970-01-01T01:00:00Z</time>
      </trkpt>
      <trkpt lat="55.595791" lon="12.947333">
        <ele>0</ele>
        <time>1970-01-01T01:00:00Z</time>
      </trkpt>
      <trkpt lat="55.595845" lon="12.947448">
        <ele>0</ele>
        <time>1970-01-01T01:00:00Z</time>
      </trkpt>
      <trkpt lat="55.595905" lon="12.947557">
        <ele>0</ele>
        <time>1970-01-01T01:00:00Z</time>
      </trkpt>
      <trkpt lat="55.595961" lon="12.947677">
        <ele>0</ele>
        <time>1970-01-01T01:00:00Z</time>
      </trkpt>
      <trkpt lat="55.596007" lon="12.947805">
        <ele>0</ele>
        <time>1970-01-01T01:00:00Z</time>
      </trkpt>
      <trkpt lat="55.596048" lon="12.947956">
        <ele>0</ele>
        <time>1970-01-01T01:00:00Z</time>
      </trkpt>
      <trkpt lat="55.596094" lon="12.948083">
        <ele>0</ele>
        <time>1970-01-01T01:00:00Z</time>
      </trkpt>
      <trkpt lat="55.596138" lon="12.948217">
        <ele>0</ele>
        <time>1970-01-01T01:00:00Z</time>
      </trkpt>
      <trkpt lat="55.596184" lon="12.948351">
        <ele>0</ele>
        <time>1970-01-01T01:00:00Z</time>
      </trkpt>
      <trkpt lat="55.596224" lon="12.948497">
        <ele>0</ele>
        <time>1970-01-01T01:00:00Z</time>
      </trkpt>
      <trkpt lat="55.596272" lon="12.948639">
        <ele>0</ele>
        <time>1970-01-01T01:00:00Z</time>
      </trkpt>
      <trkpt lat="55.596331" lon="12.94876">
        <ele>0</ele>
        <time>1970-01-01T01:00:00Z</time>
      </trkpt>
      <trkpt lat="55.596383" lon="12.948905">
        <ele>0</ele>
        <time>1970-01-01T01:00:00Z</time>
      </trkpt>
      <trkpt lat="55.596442" lon="12.949032">
        <ele>0</ele>
        <time>1970-01-01T01:00:00Z</time>
      </trkpt>
      <trkpt lat="55.596504" lon="12.94918">
        <ele>0</ele>
        <time>1970-01-01T01:00:00Z</time>
      </trkpt>
      <trkpt lat="55.596548" lon="12.949328">
        <ele>0</ele>
        <time>1970-01-01T01:00:00Z</time>
      </trkpt>
      <trkpt lat="55.596607" lon="12.949466">
        <ele>0.272727</ele>
        <time>1970-01-01T01:00:00Z</time>
      </trkpt>
      <trkpt lat="55.596667" lon="12.949593">
        <ele>0.454545</ele>
        <time>1970-01-01T01:00:00Z</time>
      </trkpt>
      <trkpt lat="55.596725" lon="12.949715">
        <ele>0.545455</ele>
        <time>1970-01-01T01:00:00Z</time>
      </trkpt>
      <trkpt lat="55.596781" lon="12.949842">
        <ele>0.545455</ele>
        <time>1970-01-01T01:00:00Z</time>
      </trkpt>
      <trkpt lat="55.59683" lon="12.949975">
        <ele>0.545455</ele>
        <time>1970-01-01T01:00:00Z</time>
      </trkpt>
      <trkpt lat="55.596876" lon="12.950109">
        <ele>0.636364</ele>
        <time>1970-01-01T01:00:00Z</time>
      </trkpt>
      <trkpt lat="55.596925" lon="12.950255">
        <ele>0.727273</ele>
        <time>1970-01-01T01:00:00Z</time>
      </trkpt>
      <trkpt lat="55.596971" lon="12.950392">
        <ele>0.818182</ele>
        <time>1970-01-01T01:00:00Z</time>
      </trkpt>
      <trkpt lat="55.597011" lon="12.950531">
        <ele>0.818182</ele>
        <time>1970-01-01T01:00:00Z</time>
      </trkpt>
      <trkpt lat="55.597073" lon="12.950681">
        <ele>0.727273</ele>
        <time>1970-01-01T01:00:00Z</time>
      </trkpt>
      <trkpt lat="55.597128" lon="12.950812">
        <ele>0.636364</ele>
        <time>1970-01-01T01:00:00Z</time>
      </trkpt>
      <trkpt lat="55.597172" lon="12.950934">
        <ele>0.545455</ele>
        <time>1970-01-01T01:00:00Z</time>
      </trkpt>
      <trkpt lat="55.59722" lon="12.951065">
        <ele>0.454545</ele>
        <time>1970-01-01T01:00:00Z</time>
      </trkpt>
      <trkpt lat="55.597274" lon="12.951179">
        <ele>0.363636</ele>
        <time>1970-01-01T01:00:00Z</time>
      </trkpt>
      <trkpt lat="55.597308" lon="12.951318">
        <ele>0.363636</ele>
        <time>1970-01-01T01:00:00Z</time>
      </trkpt>
      <trkpt lat="55.597359" lon="12.951453">
        <ele>0.363636</ele>
        <time>1970-01-01T01:00:00Z</time>
      </trkpt>
      <trkpt lat="55.597411" lon="12.951588">
        <ele>0.272727</ele>
        <time>1970-01-01T01:00:00Z</time>
      </trkpt>
      <trkpt lat="55.597446" lon="12.951733">
        <ele>0.181818</ele>
        <time>1970-01-01T01:00:00Z</time>
      </trkpt>
      <trkpt lat="55.597489" lon="12.951883">
        <ele>0.0909091</ele>
        <time>1970-01-01T01:00:00Z</time>
      </trkpt>
      <trkpt lat="55.597552" lon="12.952019">
        <ele>0</ele>
        <time>1970-01-01T01:00:00Z</time>
      </trkpt>
      <trkpt lat="55.597605" lon="12.952151">
        <ele>0</ele>
        <time>1970-01-01T01:00:00Z</time>
      </trkpt>
      <trkpt lat="55.597658" lon="12.952282">
        <ele>0</ele>
        <time>1970-01-01T01:00:00Z</time>
      </trkpt>
      <trkpt lat="55.5977" lon="12.952409">
        <ele>0</ele>
        <time>1970-01-01T01:00:00Z</time>
      </trkpt>
      <trkpt lat="55.597742" lon="12.952553">
        <ele>0</ele>
        <time>1970-01-01T01:00:00Z</time>
      </trkpt>
      <trkpt lat="55.597785" lon="12.952675">
        <ele>0</ele>
        <time>1970-01-01T01:00:00Z</time>
      </trkpt>
      <trkpt lat="55.597839" lon="12.952822">
        <ele>0</ele>
        <time>1970-01-01T01:00:00Z</time>
      </trkpt>
      <trkpt lat="55.597886" lon="12.952959">
        <ele>0</ele>
        <time>1970-01-01T01:00:00Z</time>
      </trkpt>
      <trkpt lat="55.597937" lon="12.953082">
        <ele>0</ele>
        <time>1970-01-01T01:00:00Z</time>
      </trkpt>
      <trkpt lat="55.597988" lon="12.953221">
        <ele>0</ele>
        <time>1970-01-01T01:00:00Z</time>
      </trkpt>
      <trkpt lat="55.598038" lon="12.953351">
        <ele>0</ele>
        <time>1970-01-01T01:00:00Z</time>
      </trkpt>
      <trkpt lat="55.598085" lon="12.953492">
        <ele>0</ele>
        <time>1970-01-01T01:00:00Z</time>
      </trkpt>
      <trkpt lat="55.598135" lon="12.953608">
        <ele>0</ele>
        <time>1970-01-01T01:00:00Z</time>
      </trkpt>
      <trkpt lat="55.598175" lon="12.953766">
        <ele>0</ele>
        <time>1970-01-01T01:00:00Z</time>
      </trkpt>
      <trkpt lat="55.59823" lon="12.953893">
        <ele>0</ele>
        <time>1970-01-01T01:00:00Z</time>
      </trkpt>
      <trkpt lat="55.598252" lon="12.954036">
        <ele>0</ele>
        <time>1970-01-01T01:00:00Z</time>
      </trkpt>
      <trkpt lat="55.598275" lon="12.954177">
        <ele>0</ele>
        <time>1970-01-01T01:00:00Z</time>
      </trkpt>
      <trkpt lat="55.598338" lon="12.954297">
        <ele>0</ele>
        <time>1970-01-01T01:00:00Z</time>
      </trkpt>
      <trkpt lat="55.598399" lon="12.954438">
        <ele>0</ele>
        <time>1970-01-01T01:00:00Z</time>
      </trkpt>
      <trkpt lat="55.598453" lon="12.954565">
        <ele>0</ele>
        <time>1970-01-01T01:00:00Z</time>
      </trkpt>
      <trkpt lat="55.598505" lon="12.954689">
        <ele>0</ele>
        <time>1970-01-01T01:00:00Z</time>
      </trkpt>
      <trkpt lat="55.598572" lon="12.954804">
        <ele>0</ele>
        <time>1970-01-01T01:00:00Z</time>
      </trkpt>
      <trkpt lat="55.598625" lon="12.954947">
        <ele>0</ele>
        <time>1970-01-01T01:00:00Z</time>
      </trkpt>
      <trkpt lat="55.598674" lon="12.955097">
        <ele>0</ele>
        <time>1970-01-01T01:00:00Z</time>
      </trkpt>
      <trkpt lat="55.598721" lon="12.955248">
        <ele>0</ele>
        <time>1970-01-01T01:00:00Z</time>
      </trkpt>
      <trkpt lat="55.598777" lon="12.955375">
        <ele>0</ele>
        <time>1970-01-01T01:00:00Z</time>
      </trkpt>
      <trkpt lat="55.59882" lon="12.955517">
        <ele>0</ele>
        <time>1970-01-01T01:00:00Z</time>
      </trkpt>
      <trkpt lat="55.598862" lon="12.955647">
        <ele>0</ele>
        <time>1970-01-01T01:00:00Z</time>
      </trkpt>
      <trkpt lat="55.598916" lon="12.955803">
        <ele>0.0909091</ele>
        <time>1970-01-01T01:00:00Z</time>
      </trkpt>
      <trkpt lat="55.598988" lon="12.955903">
        <ele>0.181818</ele>
        <time>1970-01-01T01:00:00Z</time>
      </trkpt>
      <trkpt lat="55.599072" lon="12.955998">
        <ele>0.272727</ele>
        <time>1970-01-01T01:00:00Z</time>
      </trkpt>
      <trkpt lat="55.599136" lon="12.956092">
        <ele>0.363636</ele>
        <time>1970-01-01T01:00:00Z</time>
      </trkpt>
      <trkpt lat="55.59918" lon="12.956234">
        <ele>0.454545</ele>
        <time>1970-01-01T01:00:00Z</time>
      </trkpt>
      <trkpt lat="55.599218" lon="12.956363">
        <ele>0.545455</ele>
        <time>1970-01-01T01:00:00Z</time>
      </trkpt>
      <trkpt lat="55.599268" lon="12.956487">
        <ele>0.636364</ele>
        <time>1970-01-01T01:00:00Z</time>
      </trkpt>
      <trkpt lat="55.599319" lon="12.956601">
        <ele>0.7</ele>
        <time>1970-01-01T01:00:00Z</time>
      </trkpt>
      <trkpt lat="55.599371" lon="12.95673">
        <ele>0.777778</ele>
        <time>1970-01-01T01:00:00Z</time>
      </trkpt>
      <trkpt lat="55.599421" lon="12.956868">
        <ele>0.875</ele>
        <time>1970-01-01T01:00:00Z</time>
      </trkpt>
      <trkpt lat="55.599461" lon="12.957007">
        <ele>1</ele>
        <time>1970-01-01T01:00:00Z</time>
      </trkpt>
      <trkpt lat="55.599488" lon="12.957109">
        <ele>1</ele>
        <time>1970-01-01T01:00:00Z</time>
      </trkpt>
      <trkpt lat="55.599477" lon="12.957158">
        <ele>1</ele>
        <time>1970-01-01T01:00:00Z</time>
      </trkpt>
      <trkpt lat="55.599494" lon="12.957173">
        <ele>1</ele>
        <time>1970-01-01T01:00:00Z</time>
      </trkpt>
      <trkpt lat="55.599474" lon="12.957308">
        <ele>0</ele>
        <time>1970-01-01T01:00:00Z</time>
      </trkpt>
      <trkpt lat="55.599516" lon="12.957471">
        <ele>0</ele>
        <time>1970-01-01T01:00:00Z</time>
      </trkpt>
      <trkpt lat="55.599551" lon="12.957638">
        <ele>0</ele>
        <time>1970-01-01T01:00:00Z</time>
      </trkpt>
      <trkpt lat="55.599548" lon="12.957822">
        <ele>0</ele>
        <time>1970-01-01T01:00:00Z</time>
      </trkpt>
      <trkpt lat="55.599556" lon="12.957988">
        <ele>0</ele>
        <time>1970-01-01T01:00:00Z</time>
      </trkpt>
      <trkpt lat="55.599605" lon="12.958166">
        <ele>0</ele>
        <time>1970-01-01T01:00:00Z</time>
      </trkpt>
      <trkpt lat="55.599656" lon="12.95829">
        <ele>0</ele>
        <time>1970-01-01T01:00:00Z</time>
      </trkpt>
      <trkpt lat="55.599716" lon="12.958431">
        <ele>0</ele>
        <time>1970-01-01T01:00:00Z</time>
      </trkpt>
      <trkpt lat="55.599772" lon="12.958567">
        <ele>0</ele>
        <time>1970-01-01T01:00:00Z</time>
      </trkpt>
      <trkpt lat="55.599815" lon="12.958723">
        <ele>0</ele>
        <time>1970-01-01T01:00:00Z</time>
      </trkpt>
      <trkpt lat="55.59986" lon="12.958871">
        <ele>0</ele>
        <time>1970-01-01T01:00:00Z</time>
      </trkpt>
      <trkpt lat="55.599896" lon="12.959011">
        <ele>0</ele>
        <time>1970-01-01T01:00:00Z</time>
      </trkpt>
      <trkpt lat="55.59993" lon="12.959185">
        <ele>0</ele>
        <time>1970-01-01T01:00:00Z</time>
      </trkpt>
      <trkpt lat="55.59996" lon="12.95932">
        <ele>0</ele>
        <time>1970-01-01T01:00:00Z</time>
      </trkpt>
      <trkpt lat="55.600008" lon="12.959475">
        <ele>0</ele>
        <time>1970-01-01T01:00:00Z</time>
      </trkpt>
      <trkpt lat="55.600055" lon="12.959623">
        <ele>0</ele>
        <time>1970-01-01T01:00:00Z</time>
      </trkpt>
      <trkpt lat="55.600107" lon="12.959782">
        <ele>0</ele>
        <time>1970-01-01T01:00:00Z</time>
      </trkpt>
      <trkpt lat="55.600148" lon="12.959953">
        <ele>0</ele>
        <time>1970-01-01T01:00:00Z</time>
      </trkpt>
      <trkpt lat="55.600198" lon="12.960105">
        <ele>0</ele>
        <time>1970-01-01T01:00:00Z</time>
      </trkpt>
      <trkpt lat="55.60024" lon="12.960253">
        <ele>0</ele>
        <time>1970-01-01T01:00:00Z</time>
      </trkpt>
      <trkpt lat="55.600283" lon="12.960384">
        <ele>0</ele>
        <time>1970-01-01T01:00:00Z</time>
      </trkpt>
      <trkpt lat="55.600333" lon="12.960541">
        <ele>0</ele>
        <time>1970-01-01T01:00:00Z</time>
      </trkpt>
      <trkpt lat="55.600376" lon="12.960691">
        <ele>0</ele>
        <time>1970-01-01T01:00:00Z</time>
      </trkpt>
      <trkpt lat="55.600417" lon="12.960848">
        <ele>0</ele>
        <time>1970-01-01T01:00:00Z</time>
      </trkpt>
      <trkpt lat="55.600454" lon="12.960995">
        <ele>0</ele>
        <time>1970-01-01T01:00:00Z</time>
      </trkpt>
      <trkpt lat="55.600496" lon="12.961127">
        <ele>0</ele>
        <time>1970-01-01T01:00:00Z</time>
      </trkpt>
      <trkpt lat="55.600533" lon="12.961256">
        <ele>0</ele>
        <time>1970-01-01T01:00:00Z</time>
      </trkpt>
      <trkpt lat="55.600575" lon="12.961388">
        <ele>0</ele>
        <time>1970-01-01T01:00:00Z</time>
      </trkpt>
      <trkpt lat="55.600607" lon="12.96153">
        <ele>0</ele>
        <time>1970-01-01T01:00:00Z</time>
      </trkpt>
      <trkpt lat="55.600646" lon="12.961671">
        <ele>0</ele>
        <time>1970-01-01T01:00:00Z</time>
      </trkpt>
      <trkpt lat="55.600695" lon="12.96179">
        <ele>0</ele>
        <time>1970-01-01T01:00:00Z</time>
      </trkpt>
      <trkpt lat="55.600736" lon="12.961934">
        <ele>0</ele>
        <time>1970-01-01T01:00:00Z</time>
      </trkpt>
      <trkpt lat="55.600768" lon="12.96209">
        <ele>0</ele>
        <time>1970-01-01T01:00:00Z</time>
      </trkpt>
      <trkpt lat="55.600793" lon="12.962232">
        <ele>0</ele>
        <time>1970-01-01T01:00:00Z</time>
      </trkpt>
      <trkpt lat="55.600828" lon="12.962375">
        <ele>0</ele>
        <time>1970-01-01T01:00:00Z</time>
      </trkpt>
      <trkpt lat="55.600861" lon="12.962513">
        <ele>0.272727</ele>
        <time>1970-01-01T01:00:00Z</time>
      </trkpt>
      <trkpt lat="55.600885" lon="12.962657">
        <ele>0.545455</ele>
        <time>1970-01-01T01:00:00Z</time>
      </trkpt>
      <trkpt lat="55.600939" lon="12.962806">
        <ele>0.818182</ele>
        <time>1970-01-01T01:00:00Z</time>
      </trkpt>
      <trkpt lat="55.60096" lon="12.962959">
        <ele>1.09091</ele>
        <time>1970-01-01T01:00:00Z</time>
      </trkpt>
      <trkpt lat="55.600998" lon="12.963122">
        <ele>1.27273</ele>
        <time>1970-01-01T01:00:00Z</time>
      </trkpt>
      <trkpt lat="55.601041" lon="12.963248">
        <ele>1.45455</ele>
        <time>1970-01-01T01:00:00Z</time>
      </trkpt>
      <trkpt lat="55.601084" lon="12.963394">
        <ele>1.63636</ele>
        <time>1970-01-01T01:00:00Z</time>
      </trkpt>
      <trkpt lat="55.601132" lon="12.963553">
        <ele>1.81818</ele>
        <time>1970-01-01T01:00:00Z</time>
      </trkpt>
      <trkpt lat="55.601143" lon="12.96373">
        <ele>1.81818</ele>
        <time>1970-01-01T01:00:00Z</time>
      </trkpt>
      <trkpt lat="55.60111" lon="12.963865">
        <ele>1.63636</ele>
        <time>1970-01-01T01:00:00Z</time>
      </trkpt>
      <trkpt lat="55.60116" lon="12.964018">
        <ele>1.45455</ele>
        <time>1970-01-01T01:00:00Z</time>
      </trkpt>
      <trkpt lat="55.601208" lon="12.964145">
        <ele>1.27273</ele>
        <time>1970-01-01T01:00:00Z</time>
      </trkpt>
      <trkpt lat="55.601264" lon="12.964323">
        <ele>1.09091</ele>
        <time>1970-01-01T01:00:00Z</time>
      </trkpt>
      <trkpt lat="55.60132" lon="12.964457">
        <ele>0.909091</ele>
        <time>1970-01-01T01:00:00Z</time>
      </trkpt>
      <trkpt lat="55.601371" lon="12.964584">
        <ele>0.727273</ele>
        <time>1970-01-01T01:00:00Z</time>
      </trkpt>
      <trkpt lat="55.601414" lon="12.964709">
        <ele>0.545455</ele>
        <time>1970-01-01T01:00:00Z</time>
      </trkpt>
      <trkpt lat="55.601464" lon="12.964856">
        <ele>0.363636</ele>
        <time>1970-01-01T01:00:00Z</time>
      </trkpt>
      <trkpt lat="55.601497" lon="12.964989">
        <ele>0.181818</ele>
        <time>1970-01-01T01:00:00Z</time>
      </trkpt>
      <trkpt lat="55.601566" lon="12.965114">
        <ele>0</ele>
        <time>1970-01-01T01:00:00Z</time>
      </trkpt>
      <trkpt lat="55.601593" lon="12.965251">
        <ele>0</ele>
        <time>1970-01-01T01:00:00Z</time>
      </trkpt>
      <trkpt lat="55.601627" lon="12.965407">
        <ele>0</ele>
        <time>1970-01-01T01:00:00Z</time>
      </trkpt>
      <trkpt lat="55.601687" lon="12.965525">
        <ele>0</ele>
        <time>1970-01-01T01:00:00Z</time>
      </trkpt>
      <trkpt lat="55.601739" lon="12.965666">
        <ele>0</ele>
        <time>1970-01-01T01:00:00Z</time>
      </trkpt>
      <trkpt lat="55.601773" lon="12.965801">
        <ele>0</ele>
        <time>1970-01-01T01:00:00Z</time>
      </trkpt>
      <trkpt lat="55.601811" lon="12.965934">
        <ele>0</ele>
        <time>1970-01-01T01:00:00Z</time>
      </trkpt>
      <trkpt lat="55.60186" lon="12.966074">
        <ele>0</ele>
        <time>1970-01-01T01:00:00Z</time>
      </trkpt>
      <trkpt lat="55.601896" lon="12.966223">
        <ele>0</ele>
        <time>1970-01-01T01:00:00Z</time>
      </trkpt>
      <trkpt lat="55.601931" lon="12.966374">
        <ele>0</ele>
        <time>1970-01-01T01:00:00Z</time>
      </trkpt>
      <trkpt lat="55.60197" lon="12.966516">
        <ele>0</ele>
        <time>1970-01-01T01:00:00Z</time>
      </trkpt>
      <trkpt lat="55.602006" lon="12.966658">
        <ele>0</ele>
        <time>1970-01-01T01:00:00Z</time>
      </trkpt>
      <trkpt lat="55.60205" lon="12.966783">
        <ele>0</ele>
        <time>1970-01-01T01:00:00Z</time>
      </trkpt>
      <trkpt lat="55.602095" lon="12.966908">
        <ele>0</ele>
        <time>1970-01-01T01:00:00Z</time>
      </trkpt>
      <trkpt lat="55.602161" lon="12.967038">
        <ele>0</ele>
        <time>1970-01-01T01:00:00Z</time>
      </trkpt>
      <trkpt lat="55.602195" lon="12.967178">
        <ele>0</ele>
        <time>1970-01-01T01:00:00Z</time>
      </trkpt>
      <trkpt lat="55.602219" lon="12.967347">
        <ele>0</ele>
        <time>1970-01-01T01:00:00Z</time>
      </trkpt>
      <trkpt lat="55.602265" lon="12.967492">
        <ele>0</ele>
        <time>1970-01-01T01:00:00Z</time>
      </trkpt>
      <trkpt lat="55.602302" lon="12.967634">
        <ele>0</ele>
        <time>1970-01-01T01:00:00Z</time>
      </trkpt>
      <trkpt lat="55.602354" lon="12.967757">
        <ele>0</ele>
        <time>1970-01-01T01:00:00Z</time>
      </trkpt>
      <trkpt lat="55.602408" lon="12.967887">
        <ele>0</ele>
        <time>1970-01-01T01:00:00Z</time>
      </trkpt>
      <trkpt lat="55.602458" lon="12.968006">
        <ele>0.0909091</ele>
        <time>1970-01-01T01:00:00Z</time>
      </trkpt>
      <trkpt lat="55.602461" lon="12.968153">
        <ele>0.363636</ele>
        <time>1970-01-01T01:00:00Z</time>
      </trkpt>
      <trkpt lat="55.602433" lon="12.968364">
        <ele>0.636364</ele>
        <time>1970-01-01T01:00:00Z</time>
      </trkpt>
      <trkpt lat="55.602418" lon="12.96852">
        <ele>0.909091</ele>
        <time>1970-01-01T01:00:00Z</time>
      </trkpt>
      <trkpt lat="55.602428" lon="12.968675">
        <ele>1.18182</ele>
        <time>1970-01-01T01:00:00Z</time>
      </trkpt>
      <trkpt lat="55.602452" lon="12.968822">
        <ele>1.45455</ele>
        <time>1970-01-01T01:00:00Z</time>
      </trkpt>
      <trkpt lat="55.602528" lon="12.968899">
        <ele>1.54545</ele>
        <time>1970-01-01T01:00:00Z</time>
      </trkpt>
      <trkpt lat="55.602587" lon="12.969002">
        <ele>1.72727</ele>
        <time>1970-01-01T01:00:00Z</time>
      </trkpt>
      <trkpt lat="55.602648" lon="12.969158">
        <ele>1.90909</ele>
        <time>1970-01-01T01:00:00Z</time>
      </trkpt>
      <trkpt lat="55.602705" lon="12.969293">
        <ele>1.63636</ele>
        <time>1970-01-01T01:00:00Z</time>
      </trkpt>
      <trkpt lat="55.602761" lon="12.969428">
        <ele>1.36364</ele>
        <time>1970-01-01T01:00:00Z</time>
      </trkpt>
      <trkpt lat="55.602798" lon="12.969556">
        <ele>1.09091</ele>
        <time>1970-01-01T01:00:00Z</time>
      </trkpt>
      <trkpt lat="55.602841" lon="12.969682">
        <ele>0.727273</ele>
        <time>1970-01-01T01:00:00Z</time>
      </trkpt>
      <trkpt lat="55.602906" lon="12.96981">
        <ele>0.454545</ele>
        <time>1970-01-01T01:00:00Z</time>
      </trkpt>
      <trkpt lat="55.602961" lon="12.969947">
        <ele>0.181818</ele>
        <time>1970-01-01T01:00:00Z</time>
      </trkpt>
      <trkpt lat="55.603003" lon="12.970081">
        <ele>0</ele>
        <time>1970-01-01T01:00:00Z</time>
      </trkpt>
      <trkpt lat="55.603046" lon="12.970244">
        <ele>0</ele>
        <time>1970-01-01T01:00:00Z</time>
      </trkpt>
      <trkpt lat="55.60307" lon="12.970408">
        <ele>0</ele>
        <time>1970-01-01T01:00:00Z</time>
      </trkpt>
      <trkpt lat="55.603096" lon="12.970556">
        <ele>0</ele>
        <time>1970-01-01T01:00:00Z</time>
      </trkpt>
      <trkpt lat="55.603129" lon="12.970689">
        <ele>0</ele>
        <time>1970-01-01T01:00:00Z</time>
      </trkpt>
      <trkpt lat="55.603171" lon="12.970844">
        <ele>0</ele>
        <time>1970-01-01T01:00:00Z</time>
      </trkpt>
      <trkpt lat="55.603217" lon="12.971008">
        <ele>0</ele>
        <time>1970-01-01T01:00:00Z</time>
      </trkpt>
      <trkpt lat="55.603262" lon="12.971174">
        <ele>0</ele>
        <time>1970-01-01T01:00:00Z</time>
      </trkpt>
      <trkpt lat="55.603303" lon="12.971348">
        <ele>0.0909091</ele>
        <time>1970-01-01T01:00:00Z</time>
      </trkpt>
      <trkpt lat="55.603335" lon="12.971506">
        <ele>0.363636</ele>
        <time>1970-01-01T01:00:00Z</time>
      </trkpt>
      <trkpt lat="55.603391" lon="12.971649">
        <ele>0.636364</ele>
        <time>1970-01-01T01:00:00Z</time>
      </trkpt>
      <trkpt lat="55.603441" lon="12.971764">
        <ele>0.909091</ele>
        <time>1970-01-01T01:00:00Z</time>
      </trkpt>
      <trkpt lat="55.60348" lon="12.971938">
        <ele>1.18182</ele>
        <time>1970-01-01T01:00:00Z</time>
      </trkpt>
      <trkpt lat="55.603524" lon="12.972098">
        <ele>1.45455</ele>
        <time>1970-01-01T01:00:00Z</time>
      </trkpt>
      <trkpt lat="55.60356" lon="12.972239">
        <ele>1.45455</ele>
        <time>1970-01-01T01:00:00Z</time>
      </trkpt>
      <trkpt lat="55.603597" lon="12.972378">
        <ele>1.45455</ele>
        <time>1970-01-01T01:00:00Z</time>
      </trkpt>
      <trkpt lat="55.603627" lon="12.972527">
        <ele>1.45455</ele>
        <time>1970-01-01T01:00:00Z</time>
      </trkpt>
      <trkpt lat="55.603672" lon="12.972669">
        <ele>1.45455</ele>
        <time>1970-01-01T01:00:00Z</time>
      </trkpt>
      <trkpt lat="55.603714" lon="12.972821">
        <ele>1.45455</ele>
        <time>1970-01-01T01:00:00Z</time>
      </trkpt>
      <trkpt lat="55.603763" lon="12.972969">
        <ele>1.45455</ele>
        <time>1970-01-01T01:00:00Z</time>
      </trkpt>
      <trkpt lat="55.603816" lon="12.973115">
        <ele>1.36364</ele>
        <time>1970-01-01T01:00:00Z</time>
      </trkpt>
      <trkpt lat="55.603862" lon="12.973255">
        <ele>1.27273</ele>
        <time>1970-01-01T01:00:00Z</time>
      </trkpt>
      <trkpt lat="55.603895" lon="12.973401">
        <ele>1.18182</ele>
        <time>1970-01-01T01:00:00Z</time>
      </trkpt>
      <trkpt lat="55.603933" lon="12.973536">
        <ele>1.09091</ele>
        <time>1970-01-01T01:00:00Z</time>
      </trkpt>
      <trkpt lat="55.603967" lon="12.973675">
        <ele>1</ele>
        <time>1970-01-01T01:00:00Z</time>
      </trkpt>
      <trkpt lat="55.604017" lon="12.973844">
        <ele>1</ele>
        <time>1970-01-01T01:00:00Z</time>
      </trkpt>
      <trkpt lat="55.604068" lon="12.973973">
        <ele>1</ele>
        <time>1970-01-01T01:00:00Z</time>
      </trkpt>
      <trkpt lat="55.604111" lon="12.974106">
        <ele>1.09091</ele>
        <time>1970-01-01T01:00:00Z</time>
      </trkpt>
      <trkpt lat="55.604153" lon="12.974272">
        <ele>1.18182</ele>
        <time>1970-01-01T01:00:00Z</time>
      </trkpt>
      <trkpt lat="55.604194" lon="12.974398">
        <ele>1.27273</ele>
        <time>1970-01-01T01:00:00Z</time>
      </trkpt>
      <trkpt lat="55.604237" lon="12.974524">
        <ele>1.36364</ele>
        <time>1970-01-01T01:00:00Z</time>
      </trkpt>
      <trkpt lat="55.604283" lon="12.97466">
        <ele>1.45455</ele>
        <time>1970-01-01T01:00:00Z</time>
      </trkpt>
      <trkpt lat="55.604326" lon="12.974785">
        <ele>1.54545</ele>
        <time>1970-01-01T01:00:00Z</time>
      </trkpt>
      <trkpt lat="55.604385" lon="12.974939">
        <ele>1.63636</ele>
        <time>1970-01-01T01:00:00Z</time>
      </trkpt>
      <trkpt lat="55.60444" lon="12.975072">
        <ele>1.72727</ele>
        <time>1970-01-01T01:00:00Z</time>
      </trkpt>
      <trkpt lat="55.604483" lon="12.975213">
        <ele>1.54545</ele>
        <time>1970-01-01T01:00:00Z</time>
      </trkpt>
      <trkpt lat="55.604517" lon="12.975385">
        <ele>1.36364</ele>
        <time>1970-01-01T01:00:00Z</time>
      </trkpt>
      <trkpt lat="55.604556" lon="12.975554">
        <ele>1.18182</ele>
        <time>1970-01-01T01:00:00Z</time>
      </trkpt>
      <trkpt lat="55.604599" lon="12.975707">
        <ele>1.09091</ele>
        <time>1970-01-01T01:00:00Z</time>
      </trkpt>
      <trkpt lat="55.604639" lon="12.975847">
        <ele>1</ele>
        <time>1970-01-01T01:00:00Z</time>
      </trkpt>
      <trkpt lat="55.604671" lon="12.976021">
        <ele>0.909091</ele>
        <time>1970-01-01T01:00:00Z</time>
      </trkpt>
      <trkpt lat="55.6047" lon="12.976158">
        <ele>0.818182</ele>
        <time>1970-01-01T01:00:00Z</time>
      </trkpt>
      <trkpt lat="55.604735" lon="12.976291">
        <ele>0.727273</ele>
        <time>1970-01-01T01:00:00Z</time>
      </trkpt>
      <trkpt lat="55.60479" lon="12.976417">
        <ele>0.636364</ele>
        <time>1970-01-01T01:00:00Z</time>
      </trkpt>
      <trkpt lat="55.604826" lon="12.976592">
        <ele>0.545455</ele>
        <time>1970-01-01T01:00:00Z</time>
      </trkpt>
      <trkpt lat="55.604881" lon="12.976753">
        <ele>0.454545</ele>
        <time>1970-01-01T01:00:00Z</time>
      </trkpt>
      <trkpt lat="55.604919" lon="12.976892">
        <ele>0.636364</ele>
        <time>1970-01-01T01:00:00Z</time>
      </trkpt>
      <trkpt lat="55.604962" lon="12.977022">
        <ele>0.818182</ele>
        <time>1970-01-01T01:00:00Z</time>
      </trkpt>
      <trkpt lat="55.605002" lon="12.977157">
        <ele>1</ele>
        <time>1970-01-01T01:00:00Z</time>
      </trkpt>
      <trkpt lat="55.605036" lon="12.977298">
        <ele>1.09091</ele>
        <time>1970-01-01T01:00:00Z</time>
      </trkpt>
      <trkpt lat="55.605069" lon="12.977432">
        <ele>1.18182</ele>
        <time>1970-01-01T01:00:00Z</time>
      </trkpt>
      <trkpt lat="55.605092" lon="12.97757">
        <ele>1.27273</ele>
        <time>1970-01-01T01:00:00Z</time>
      </trkpt>
      <trkpt lat="55.60514" lon="12.97774">
        <ele>1.36364</ele>
        <time>1970-01-01T01:00:00Z</time>
      </trkpt>
      <trkpt lat="55.605188" lon="12.977873">
        <ele>1.45455</ele>
        <time>1970-01-01T01:00:00Z</time>
      </trkpt>
      <trkpt lat="55.605224" lon="12.978016">
        <ele>1.54545</ele>
        <time>1970-01-01T01:00:00Z</time>
      </trkpt>
      <trkpt lat="55.605263" lon="12.978151">
        <ele>1.63636</ele>
        <time>1970-01-01T01:00:00Z</time>
      </trkpt>
      <trkpt lat="55.605311" lon="12.97828">
        <ele>1.72727</ele>
        <time>1970-01-01T01:00:00Z</time>
      </trkpt>
      <trkpt lat="55.605349" lon="12.978408">
        <ele>1.81818</ele>
        <time>1970-01-01T01:00:00Z</time>
      </trkpt>
      <trkpt lat="55.605286" lon="12.97852">
        <ele>1.90909</ele>
        <time>1970-01-01T01:00:00Z</time>
      </trkpt>
      <trkpt lat="55.60519" lon="12.978595">
        <ele>2</ele>
        <time>1970-01-01T01:00:00Z</time>
      </trkpt>
      <trkpt lat="55.605085" lon="12.978654">
        <ele>2</ele>
        <time>1970-01-01T01:00:00Z</time>
      </trkpt>
      <trkpt lat="55.60498" lon="12.978672">
        <ele>2</ele>
        <time>1970-01-01T01:00:00Z</time>
      </trkpt>
      <trkpt lat="55.604899" lon="12.978664">
        <ele>2</ele>
        <time>1970-01-01T01:00:00Z</time>
      </trkpt>
      <trkpt lat="55.604807" lon="12.978721">
        <ele>2</ele>
        <time>1970-01-01T01:00:00Z</time>
      </trkpt>
      <trkpt lat="55.604728" lon="12.978758">
        <ele>2</ele>
        <time>1970-01-01T01:00:00Z</time>
      </trkpt>
      <trkpt lat="55.604628" lon="12.978721">
        <ele>2</ele>
        <time>1970-01-01T01:00:00Z</time>
      </trkpt>
      <trkpt lat="55.604554" lon="12.978602">
        <ele>2</ele>
        <time>1970-01-01T01:00:00Z</time>
      </trkpt>
      <trkpt lat="55.60449" lon="12.978496">
        <ele>2</ele>
        <time>1970-01-01T01:00:00Z</time>
      </trkpt>
      <trkpt lat="55.604426" lon="12.97838">
        <ele>2</ele>
        <time>1970-01-01T01:00:00Z</time>
      </trkpt>
      <trkpt lat="55.604365" lon="12.978238">
        <ele>2</ele>
        <time>1970-01-01T01:00:00Z</time>
      </trkpt>
      <trkpt lat="55.604319" lon="12.978071">
        <ele>2</ele>
        <time>1970-01-01T01:00:00Z</time>
      </trkpt>
      <trkpt lat="55.604268" lon="12.977948">
        <ele>2</ele>
        <time>1970-01-01T01:00:00Z</time>
      </trkpt>
      <trkpt lat="55.604213" lon="12.977827">
        <ele>2</ele>
        <time>1970-01-01T01:00:00Z</time>
      </trkpt>
      <trkpt lat="55.604152" lon="12.977727">
        <ele>2</ele>
        <time>1970-01-01T01:00:00Z</time>
      </trkpt>
      <trkpt lat="55.604093" lon="12.977608">
        <ele>2</ele>
        <time>1970-01-01T01:00:00Z</time>
      </trkpt>
      <trkpt lat="55.604045" lon="12.977493">
        <ele>2</ele>
        <time>1970-01-01T01:00:00Z</time>
      </trkpt>
      <trkpt lat="55.603991" lon="12.977349">
        <ele>2</ele>
        <time>1970-01-01T01:00:00Z</time>
      </trkpt>
      <trkpt lat="55.603964" lon="12.977202">
        <ele>2</ele>
        <time>1970-01-01T01:00:00Z</time>
      </trkpt>
      <trkpt lat="55.604005" lon="12.977335">
        <ele>2</ele>
        <time>1970-01-01T01:00:00Z</time>
      </trkpt>
      <trkpt lat="55.604063" lon="12.977489">
        <ele>2</ele>
        <time>1970-01-01T01:00:00Z</time>
      </trkpt>
      <trkpt lat="55.60412" lon="12.977633">
        <ele>2</ele>
        <time>1970-01-01T01:00:00Z</time>
      </trkpt>
      <trkpt lat="55.604197" lon="12.977776">
        <ele>2</ele>
        <time>1970-01-01T01:00:00Z</time>
      </trkpt>
      <trkpt lat="55.604264" lon="12.977897">
        <ele>2</ele>
        <time>1970-01-01T01:00:00Z</time>
      </trkpt>
      <trkpt lat="55.604323" lon="12.978009">
        <ele>2</ele>
        <time>1970-01-01T01:00:00Z</time>
      </trkpt>
      <trkpt lat="55.604386" lon="12.978132">
        <ele>2</ele>
        <time>1970-01-01T01:00:00Z</time>
      </trkpt>
      <trkpt lat="55.604428" lon="12.978262">
        <ele>2</ele>
        <time>1970-01-01T01:00:00Z</time>
      </trkpt>
      <trkpt lat="55.604475" lon="12.978453">
        <ele>2</ele>
        <time>1970-01-01T01:00:00Z</time>
      </trkpt>
      <trkpt lat="55.604546" lon="12.978606">
        <ele>2</ele>
        <time>1970-01-01T01:00:00Z</time>
      </trkpt>
      <trkpt lat="55.604614" lon="12.978725">
        <ele>2</ele>
        <time>1970-01-01T01:00:00Z</time>
      </trkpt>
      <trkpt lat="55.604686" lon="12.978832">
        <ele>2</ele>
        <time>1970-01-01T01:00:00Z</time>
      </trkpt>
      <trkpt lat="55.604617" lon="12.978732">
        <ele>2</ele>
        <time>1970-01-01T01:00:00Z</time>
      </trkpt>
      <trkpt lat="55.604545" lon="12.978619">
        <ele>2</ele>
        <time>1970-01-01T01:00:00Z</time>
      </trkpt>
      <trkpt lat="55.604472" lon="12.97848">
        <ele>2</ele>
        <time>1970-01-01T01:00:00Z</time>
      </trkpt>
      <trkpt lat="55.604413" lon="12.978347">
        <ele>2</ele>
        <time>1970-01-01T01:00:00Z</time>
      </trkpt>
      <trkpt lat="55.604366" lon="12.978202">
        <ele>2</ele>
        <time>1970-01-01T01:00:00Z</time>
      </trkpt>
      <trkpt lat="55.604299" lon="12.978055">
        <ele>2</ele>
        <time>1970-01-01T01:00:00Z</time>
      </trkpt>
      <trkpt lat="55.604232" lon="12.977912">
        <ele>2</ele>
        <time>1970-01-01T01:00:00Z</time>
      </trkpt>
      <trkpt lat="55.60418" lon="12.977785">
        <ele>2</ele>
        <time>1970-01-01T01:00:00Z</time>
      </trkpt>
      <trkpt lat="55.604096" lon="12.977625">
        <ele>2</ele>
        <time>1970-01-01T01:00:00Z</time>
      </trkpt>
      <trkpt lat="55.604038" lon="12.977484">
        <ele>2.54545</ele>
        <time>1970-01-01T01:00:00Z</time>
      </trkpt>
      <trkpt lat="55.603993" lon="12.977337">
        <ele>3.09091</ele>
        <time>1970-01-01T01:00:00Z</time>
      </trkpt>
      <trkpt lat="55.603967" lon="12.977181">
        <ele>3.63636</ele>
        <time>1970-01-01T01:00:00Z</time>
      </trkpt>
      <trkpt lat="55.603872" lon="12.977191">
        <ele>4.18182</ele>
        <time>1970-01-01T01:00:00Z</time>
      </trkpt>
      <trkpt lat="55.603789" lon="12.977216">
        <ele>4.72727</ele>
        <time>1970-01-01T01:00:00Z</time>
      </trkpt>
      <trkpt lat="55.603706" lon="12.977226">
        <ele>5.27273</ele>
        <time>1970-01-01T01:00:00Z</time>
      </trkpt>
      <trkpt lat="55.603628" lon="12.977302">
        <ele>5.81818</ele>
        <time>1970-01-01T01:00:00Z</time>
      </trkpt>
      <trkpt lat="55.603558" lon="12.977423">
        <ele>6.36364</ele>
        <time>1970-01-01T01:00:00Z</time>
      </trkpt>
      <trkpt lat="55.603481" lon="12.97735">
        <ele>6.90909</ele>
        <time>1970-01-01T01:00:00Z</time>
      </trkpt>
      <trkpt lat="55.603397" lon="12.977446">
        <ele>7.45455</ele>
        <time>1970-01-01T01:00:00Z</time>
      </trkpt>
      <trkpt lat="55.603321" lon="12.97751">
        <ele>7.90909</ele>
        <time>1970-01-01T01:00:00Z</time>
      </trkpt>
      <trkpt lat="55.603233" lon="12.977526">
        <ele>7.81818</ele>
        <time>1970-01-01T01:00:00Z</time>
      </trkpt>
      <trkpt lat="55.603157" lon="12.97761">
        <ele>7.72727</ele>
        <time>1970-01-01T01:00:00Z</time>
      </trkpt>
      <trkpt lat="55.603054" lon="12.977665">
        <ele>7.63636</ele>
        <time>1970-01-01T01:00:00Z</time>
      </trkpt>
      <trkpt lat="55.602974" lon="12.977737">
        <ele>7.54545</ele>
        <time>1970-01-01T01:00:00Z</time>
      </trkpt>
      <trkpt lat="55.602896" lon="12.977797">
        <ele>7.36364</ele>
        <time>1970-01-01T01:00:00Z</time>
      </trkpt>
      <trkpt lat="55.602812" lon="12.97781">
        <ele>7.18182</ele>
        <time>1970-01-01T01:00:00Z</time>
      </trkpt>
      <trkpt lat="55.60273" lon="12.977865">
        <ele>7</ele>
        <time>1970-01-01T01:00:00Z</time>
      </trkpt>
      <trkpt lat="55.602645" lon="12.977889">
        <ele>6.81818</ele>
        <time>1970-01-01T01:00:00Z</time>
      </trkpt>
      <trkpt lat="55.602567" lon="12.97795">
        <ele>6.63636</ele>
        <time>1970-01-01T01:00:00Z</time>
      </trkpt>
      <trkpt lat="55.602484" lon="12.978001">
        <ele>6.36364</ele>
        <time>1970-01-01T01:00:00Z</time>
      </trkpt>
      <trkpt lat="55.602386" lon="12.97804">
        <ele>6.18182</ele>
        <time>1970-01-01T01:00:00Z</time>
      </trkpt>
      <trkpt lat="55.602304" lon="12.978018">
        <ele>6</ele>
        <time>1970-01-01T01:00:00Z</time>
      </trkpt>
      <trkpt lat="55.602215" lon="12.978079">
        <ele>5.81818</ele>
        <time>1970-01-01T01:00:00Z</time>
      </trkpt>
      <trkpt lat="55.602122" lon="12.978136">
        <ele>5.63636</ele>
        <time>1970-01-01T01:00:00Z</time>
      </trkpt>
      <trkpt lat="55.602038" lon="12.978077">
        <ele>5.45455</ele>
        <time>1970-01-01T01:00:00Z</time>
      </trkpt>
      <trkpt lat="55.601968" lon="12.978158">
        <ele>5.36364</ele>
        <time>1970-01-01T01:00:00Z</time>
      </trkpt>
      <trkpt lat="55.601881" lon="12.978165">
        <ele>5.27273</ele>
        <time>1970-01-01T01:00:00Z</time>
      </trkpt>
      <trkpt lat="55.601805" lon="12.978221">
        <ele>5.18182</ele>
        <time>1970-01-01T01:00:00Z</time>
      </trkpt>
      <trkpt lat="55.601724" lon="12.97829">
        <ele>5.09091</ele>
        <time>1970-01-01T01:00:00Z</time>
      </trkpt>
      <trkpt lat="55.601642" lon="12.978345">
        <ele>5</ele>
        <time>1970-01-01T01:00:00Z</time>
      </trkpt>
      <trkpt lat="55.601557" lon="12.978359">
        <ele>5</ele>
        <time>1970-01-01T01:00:00Z</time>
      </trkpt>
      <trkpt lat="55.601472" lon="12.978367">
        <ele>5</ele>
        <time>1970-01-01T01:00:00Z</time>
      </trkpt>
      <trkpt lat="55.601387" lon="12.978399">
        <ele>5</ele>
        <time>1970-01-01T01:00:00Z</time>
      </trkpt>
      <trkpt lat="55.601308" lon="12.978436">
        <ele>5</ele>
        <time>1970-01-01T01:00:00Z</time>
      </trkpt>
      <trkpt lat="55.601219" lon="12.978492">
        <ele>5</ele>
        <time>1970-01-01T01:00:00Z</time>
      </trkpt>
      <trkpt lat="55.601135" lon="12.978488">
        <ele>5</ele>
        <time>1970-01-01T01:00:00Z</time>
      </trkpt>
      <trkpt lat="55.601057" lon="12.978529">
        <ele>5</ele>
        <time>1970-01-01T01:00:00Z</time>
      </trkpt>
      <trkpt lat="55.600978" lon="12.978572">
        <ele>5</ele>
        <time>1970-01-01T01:00:00Z</time>
      </trkpt>
      <trkpt lat="55.600893" lon="12.978621">
        <ele>5</ele>
        <time>1970-01-01T01:00:00Z</time>
      </trkpt>
      <trkpt lat="55.600821" lon="12.978699">
        <ele>5</ele>
        <time>1970-01-01T01:00:00Z</time>
      </trkpt>
      <trkpt lat="55.600812" lon="12.97885">
        <ele>5</ele>
        <time>1970-01-01T01:00:00Z</time>
      </trkpt>
      <trkpt lat="55.600778" lon="12.978992">
        <ele>5</ele>
        <time>1970-01-01T01:00:00Z</time>
      </trkpt>
      <trkpt lat="55.60082" lon="12.979139">
        <ele>5</ele>
        <time>1970-01-01T01:00:00Z</time>
      </trkpt>
      <trkpt lat="55.600883" lon="12.979243">
        <ele>5</ele>
        <time>1970-01-01T01:00:00Z</time>
      </trkpt>
      <trkpt lat="55.600927" lon="12.979371">
        <ele>5</ele>
        <time>1970-01-01T01:00:00Z</time>
      </trkpt>
      <trkpt lat="55.600997" lon="12.979464">
        <ele>5</ele>
        <time>1970-01-01T01:00:00Z</time>
      </trkpt>
      <trkpt lat="55.601058" lon="12.979576">
        <ele>5</ele>
        <time>1970-01-01T01:00:00Z</time>
      </trkpt>
    </trkseg>
  </trk>
</gpx>